Newton, KS

7:43 PM CST on December 10, 2019 (GMT -0600)
Newton City County

Weather History for KEWK - August, 2019

Change the Weather History Date:

Friday, August 23, 2019

  Actual Average Record
Temperature  
Mean Temperature 73 °F -  
Max Temperature 80 °F 87 °F 107 °F (2011)
Min Temperature 66 °F 65 °F 57 °F (2015)
Cooling Degree Days 8    
Growing Degree Days 23 (Base 50)    
Moisture  
Dew Point 68 °F    
Average Humidity 86    
Maximum Humidity 100    
Minimum Humidity 69    
Precipitation  
Precipitation 0.00 in - - ()
Sea Level Pressure  
Sea Level Pressure 29.99 in    
Wind  
Wind Speed 8 mph (ESE)    
Max Wind Speed 18 mph    
Max Gust Speed 24 mph    
Visibility 9 miles    
Events      
Averages and records for this station are not official NWS values.
T = Trace of Precipitation, MM = Missing Value Source: NWS Daily Summary

Daily Weather History Graph

Daily Weather History Graph

Search for Another Location

Airport or City:

Astronomy

Aug. 23, 2019 Rise Set
Actual Time 6:50 AM CDT 8:11 PM CDT
Civil Twilight 6:23 AM CDT 8:39 PM CDT
Nautical Twilight 5:50 AM CDT 9:12 PM CDT
Astronomical Twilight 5:15 AM CDT 9:46 PM CDT
Moon 12:10 AM CDT (8/23) 2:22 PM CDT (8/23)
Length of Visible Light 14h 15m
Length of Day
13h 20m
Waning Gibbous, 49% of the Moon is Illuminated
Aug 23
Waning Gibbous
Aug 30
New
Sep 5
First Quarter
Sep 13
Full
Sep 21
Last Quarter

Hourly Weather History & Observations

Time (CDT) Temp. Heat Index Dew Point Humidity Pressure Visibility Wind Dir Wind Speed Gust Speed Precip Events Conditions
12:56 AM 68.0 °F - 66.9 °F 96% 29.96 in 10.0 mi East 4.6 mph - N/A   Unknown
1:56 AM 66.9 °F - 66.9 °F 100% 29.96 in 9.0 mi East 4.6 mph - N/A   Unknown
2:56 AM 68.0 °F - 66.9 °F 96% 29.94 in 7.0 mi ENE 3.5 mph - N/A   Unknown
3:56 AM 68.0 °F - 66.9 °F 96% 29.95 in 7.0 mi ENE 4.6 mph - N/A   Unknown
4:56 AM 68.0 °F - 66.9 °F 96% 29.97 in 6.0 mi ENE 5.8 mph - N/A   Mostly Cloudy
5:56 AM 68.0 °F - 68.0 °F 100% 29.96 in 5.0 mi East 5.8 mph - N/A   Overcast
6:56 AM 68.0 °F - 68.0 °F 100% 29.96 in 6.0 mi ESE 9.2 mph - N/A   Overcast
7:56 AM 69.1 °F - 68.0 °F 96% 29.98 in 5.0 mi East 6.9 mph - N/A   Overcast
8:56 AM 70.0 °F - 69.1 °F 97% 30.02 in 10.0 mi East 6.9 mph - N/A   Overcast
9:09 AM 69.8 °F - 69.8 °F 100% 30.05 in 10.0 mi ESE 6.9 mph - N/A   Overcast
9:56 AM 71.1 °F - 69.1 °F 93% 30.02 in 10.0 mi East 5.8 mph - N/A   Overcast
10:28 AM 73.4 °F - 69.8 °F 88% 30.06 in 10.0 mi ESE 9.2 mph - N/A   Overcast
10:56 AM 75.0 °F - 69.1 °F 82% 30.03 in 10.0 mi SE 8.1 mph - N/A   Overcast
11:56 AM 75.9 °F - 69.1 °F 79% 30.01 in 10.0 mi East 12.7 mph - N/A   Overcast
12:56 PM 77.0 °F - 68.0 °F 74% 29.99 in 10.0 mi ESE 15.0 mph - N/A   Mostly Cloudy
1:18 PM 78.8 °F - 69.8 °F 74% 30.02 in 10.0 mi ESE 13.8 mph - N/A   Mostly Cloudy
1:56 PM 80.1 °F 82.9 °F 69.1 °F 69% 29.96 in 10.0 mi ESE 15.0 mph 21.9 mph N/A   Mostly Cloudy
2:05 PM 78.8 °F - 68.0 °F 69% 30.01 in 10.0 mi ESE 18.4 mph 24.2 mph N/A   Mostly Cloudy
2:56 PM 79.0 °F - 69.1 °F 72% 29.98 in 10.0 mi ESE 11.5 mph - N/A   Overcast
3:56 PM 80.1 °F 82.9 °F 69.1 °F 69% 29.96 in 10.0 mi ESE 12.7 mph - N/A   Overcast
4:56 PM 80.1 °F 82.9 °F 69.1 °F 69% 29.97 in 10.0 mi SE 9.2 mph 16.1 mph N/A   Partly Cloudy
5:56 PM 80.1 °F 82.9 °F 69.1 °F 69% 29.97 in 10.0 mi ESE 10.4 mph - N/A   Partly Cloudy
6:56 PM 78.1 °F - 69.1 °F 74% 29.98 in 10.0 mi ESE 6.9 mph - N/A   Scattered Clouds
7:56 PM 75.0 °F - 69.1 °F 82% 29.98 in 10.0 mi ESE 6.9 mph - N/A   Mostly Cloudy
8:56 PM 73.0 °F - 69.1 °F 87% 29.96 in 10.0 mi SE 11.5 mph - N/A   Clear
9:56 PM 72.0 °F - 68.0 °F 87% 29.96 in 10.0 mi SE 13.8 mph - N/A   Clear
10:56 PM 70.0 °F - 66.9 °F 90% 29.99 in 10.0 mi ESE 10.4 mph - N/A   Clear
11:56 PM 69.1 °F - 66.9 °F 93% 30.01 in 10.0 mi East 6.9 mph - N/A   Clear